BOX114 EDDF-EBBR

Flight info

Callsign BOX114
Flight time 0h 36m
Altitude 22000
Route SOBRA2L SOBRA Y180 BITBU Y181 GOPAS N852 LNO
Aircraft B77L/H-SDE1E2E3FGHIJ2J3J4J5M1RWXY/LB1D1

Departure

Time 2026-04-15 14:27
Airport Frankfurt Main Airport (EDDF)

Arrival

Time 2026-04-15 15:04
Airport Brussels Airport (EBBR)
Time Latitude Longitude Altitude Speed Heading
2026-04-15 14:27 49.87955 8.45251 7405 ft 273 kts 266°
2026-04-15 14:27 49.87884 8.42300 8255 ft 275 kts 267°
2026-04-15 14:28 49.87816 8.39331 9118 ft 277 kts 267°
2026-04-15 14:28 49.87747 8.36329 9950 ft 280 kts 267°
2026-04-15 14:28 49.87675 8.33280 10616 ft 288 kts 267°
2026-04-15 14:28 49.87595 8.30038 10875 ft 314 kts 267°
2026-04-15 14:29 49.87505 8.26516 11092 ft 340 kts 267°
2026-04-15 14:29 49.87405 8.22719 11422 ft 362 kts 267°
2026-04-15 14:29 49.87301 8.18777 12156 ft 371 kts 267°
2026-04-15 14:29 49.87192 8.14760 13201 ft 374 kts 267°
2026-04-15 14:30 49.87080 8.10720 14207 ft 378 kts 266°
2026-04-15 14:30 49.86964 8.06624 15021 ft 383 kts 266°
2026-04-15 14:30 49.86844 8.02467 15871 ft 388 kts 266°
2026-04-15 14:30 49.86722 7.98270 16741 ft 392 kts 266°
2026-04-15 14:31 49.86599 7.94088 17559 ft 397 kts 267°
2026-04-15 14:31 49.86472 7.89785 18379 ft 402 kts 266°
2026-04-15 14:31 49.86342 7.85435 19070 ft 406 kts 266°
2026-04-15 14:31 49.86239 7.81160 19736 ft 411 kts 270°
2026-04-15 14:32 49.86409 7.76722 20450 ft 415 kts 276°
2026-04-15 14:32 49.86870 7.72286 21164 ft 419 kts 282°
2026-04-15 14:32 49.87571 7.67939 21920 ft 420 kts 283°
2026-04-15 14:32 49.88276 7.63529 22210 ft 421 kts 283°
2026-04-15 14:33 49.88967 7.59121 22196 ft 419 kts 283°
2026-04-15 14:33 49.89643 7.54738 22201 ft 417 kts 283°
2026-04-15 14:33 49.90313 7.50357 22202 ft 417 kts 283°
2026-04-15 14:33 49.90982 7.45973 22199 ft 418 kts 283°
2026-04-15 14:34 49.91650 7.41580 22196 ft 418 kts 283°
2026-04-15 14:34 49.92317 7.37185 22189 ft 419 kts 282°
2026-04-15 14:34 49.92982 7.32789 22187 ft 419 kts 282°
2026-04-15 14:34 49.93646 7.28387 22179 ft 419 kts 282°
2026-04-15 14:35 49.94308 7.23986 22184 ft 419 kts 282°
2026-04-15 14:35 49.94969 7.19578 22189 ft 419 kts 282°
2026-04-15 14:35 49.95631 7.15175 22187 ft 419 kts 282°
2026-04-15 14:35 49.96287 7.10769 22181 ft 419 kts 282°
2026-04-15 14:36 49.96943 7.06354 22175 ft 419 kts 282°
2026-04-15 14:36 49.97594 7.01946 22182 ft 418 kts 282°
2026-04-15 14:36 49.98245 6.97542 22171 ft 418 kts 282°
2026-04-15 14:36 49.98843 6.93136 22183 ft 417 kts 278°
2026-04-15 14:37 49.99083 6.90182 22179 ft 416 kts 275°
2026-04-15 14:37 49.99216 6.85694 22169 ft 415 kts 269°
2026-04-15 14:37 49.99085 6.81219 22177 ft 415 kts 266°
2026-04-15 14:37 49.98932 6.76740 22174 ft 415 kts 266°
2026-04-15 14:38 49.98786 6.72258 22182 ft 416 kts 266°
2026-04-15 14:38 49.98647 6.67765 22182 ft 416 kts 267°
2026-04-15 14:38 49.98513 6.63275 22176 ft 417 kts 267°
2026-04-15 14:38 49.98377 6.58768 22176 ft 417 kts 267°
2026-04-15 14:39 49.98239 6.54256 22167 ft 419 kts 267°
2026-04-15 14:39 49.98098 6.49743 22177 ft 419 kts 266°
2026-04-15 14:39 49.97953 6.45222 22174 ft 418 kts 266°
2026-04-15 14:39 49.97803 6.40705 22163 ft 417 kts 266°
2026-04-15 14:40 49.97656 6.36207 22176 ft 417 kts 266°
2026-04-15 14:40 49.97506 6.31708 22181 ft 417 kts 266°
2026-04-15 14:40 49.97357 6.27208 22177 ft 418 kts 266°
2026-04-15 14:40 49.97206 6.22706 22185 ft 418 kts 266°
2026-04-15 14:41 49.97052 6.18189 22183 ft 419 kts 266°
2026-04-15 14:41 49.96990 6.13712 22161 ft 413 kts 275°
2026-04-15 14:41 49.97854 6.09464 22207 ft 419 kts 296°
2026-04-15 14:41 49.99525 6.05710 22181 ft 427 kts 310°
2026-04-15 14:42 50.01696 6.02568 22174 ft 428 kts 323°
2026-04-15 14:42 50.04385 6.00577 22186 ft 431 kts 343°
2026-04-15 14:42 50.07303 5.99610 22191 ft 430 kts 345°
2026-04-15 14:42 50.10222 5.98459 22189 ft 435 kts 342°
2026-04-15 14:43 50.13093 5.97175 22178 ft 434 kts 341°
2026-04-15 14:43 50.15964 5.95746 22175 ft 432 kts 339°
2026-04-15 14:43 50.18804 5.94215 22167 ft 432 kts 338°
2026-04-15 14:43 50.21626 5.92620 22168 ft 431 kts 337°
2026-04-15 14:44 50.24444 5.90988 22164 ft 431 kts 337°
2026-04-15 14:44 50.27255 5.89346 22186 ft 432 kts 337°
2026-04-15 14:44 50.30071 5.87698 22181 ft 432 kts 337°
2026-04-15 14:44 50.32854 5.86071 22160 ft 422 kts 337°
2026-04-15 14:45 50.35585 5.84481 21872 ft 417 kts 337°
2026-04-15 14:45 50.38289 5.82903 21401 ft 413 kts 337°
2026-04-15 14:45 50.40975 5.81335 20941 ft 409 kts 337°
2026-04-15 14:45 50.43628 5.79785 20472 ft 406 kts 337°
2026-04-15 14:46 50.46264 5.78244 20023 ft 403 kts 337°
2026-04-15 14:46 50.48879 5.76712 19568 ft 400 kts 337°
2026-04-15 14:46 50.51473 5.75192 19127 ft 397 kts 337°
2026-04-15 14:46 50.54050 5.73679 18688 ft 394 kts 337°
2026-04-15 14:47 50.56613 5.72166 18157 ft 391 kts 336°
2026-04-15 14:47 50.58949 5.70148 17642 ft 380 kts 318°
2026-04-15 14:47 50.60701 5.67146 17205 ft 368 kts 306°
2026-04-15 14:47 50.62276 5.63973 16755 ft 367 kts 306°
2026-04-15 14:48 50.63844 5.60825 16300 ft 364 kts 306°
2026-04-15 14:48 50.65405 5.57712 15860 ft 361 kts 306°
2026-04-15 14:48 50.66960 5.54621 15424 ft 358 kts 306°
2026-04-15 14:48 50.68503 5.51560 14980 ft 355 kts 306°
2026-04-15 14:49 50.70037 5.48522 14554 ft 353 kts 306°
2026-04-15 14:49 50.71562 5.45510 14123 ft 351 kts 306°
2026-04-15 14:49 50.73080 5.42503 13647 ft 348 kts 306°
2026-04-15 14:49 50.74581 5.39526 13176 ft 345 kts 306°
2026-04-15 14:50 50.76070 5.36572 12762 ft 342 kts 306°
2026-04-15 14:50 50.77546 5.33642 12336 ft 339 kts 306°
2026-04-15 14:50 50.79006 5.30739 11908 ft 336 kts 306°
2026-04-15 14:50 50.80454 5.27861 11484 ft 333 kts 306°
2026-04-15 14:51 50.81884 5.25013 11091 ft 330 kts 306°
2026-04-15 14:51 50.83292 5.22206 10891 ft 320 kts 306°
2026-04-15 14:51 50.84650 5.19497 10748 ft 309 kts 306°
2026-04-15 14:51 50.85962 5.16876 10609 ft 298 kts 306°
2026-04-15 14:52 50.87228 5.14346 10483 ft 288 kts 305°
2026-04-15 14:52 50.88451 5.11912 10337 ft 279 kts 305°
2026-04-15 14:52 50.89657 5.09552 10145 ft 273 kts 306°
2026-04-15 14:52 50.90845 5.07234 9989 ft 271 kts 306°
2026-04-15 14:53 50.92041 5.04897 9651 ft 274 kts 306°
2026-04-15 14:53 50.93246 5.02541 9336 ft 276 kts 306°
2026-04-15 14:53 50.94445 5.00193 9000 ft 272 kts 306°
2026-04-15 14:53 50.95622 4.97886 8696 ft 268 kts 306°
2026-04-15 14:54 50.96786 4.95603 8382 ft 264 kts 306°
2026-04-15 14:54 50.97916 4.93381 8095 ft 262 kts 306°
2026-04-15 14:54 50.99064 4.91119 7806 ft 263 kts 305°
2026-04-15 14:54 51.00213 4.88853 7487 ft 263 kts 306°
2026-04-15 14:55 51.01361 4.86586 7131 ft 265 kts 306°
2026-04-15 14:55 51.02532 4.84280 6779 ft 263 kts 305°
2026-04-15 14:55 51.03669 4.82041 6446 ft 258 kts 305°
2026-04-15 14:55 51.04768 4.79861 6152 ft 253 kts 306°
2026-04-15 14:56 51.05854 4.77715 5891 ft 247 kts 305°
2026-04-15 14:56 51.06921 4.75609 5571 ft 242 kts 305°
2026-04-15 14:56 51.07962 4.73545 5285 ft 236 kts 305°
2026-04-15 14:56 51.08989 4.71509 5023 ft 231 kts 304°
2026-04-15 14:57 51.09982 4.69536 4752 ft 224 kts 303°
2026-04-15 14:57 51.10665 4.67463 4501 ft 202 kts 282°
2026-04-15 14:57 51.11020 4.65353 4376 ft 198 kts 278°
2026-04-15 14:57 51.11346 4.63211 4296 ft 199 kts 277°
2026-04-15 14:58 51.11345 4.61126 4154 ft 180 kts 250°
2026-04-15 14:58 51.10789 4.59451 4013 ft 167 kts 220°
2026-04-15 14:58 51.09808 4.58588 3925 ft 164 kts 205°
2026-04-15 14:58 51.08749 4.57855 3681 ft 164 kts 201°
2026-04-15 14:59 51.07717 4.57195 3494 ft 157 kts 201°
2026-04-15 14:59 51.06683 4.56608 3295 ft 159 kts 199°
2026-04-15 14:59 51.05626 4.56107 3063 ft 153 kts 196°
2026-04-15 14:59 51.04659 4.55692 2871 ft 138 kts 197°
2026-04-15 15:00 51.03741 4.55289 2710 ft 134 kts 197°
2026-04-15 15:00 51.02822 4.54940 2533 ft 136 kts 196°
2026-04-15 15:00 51.01906 4.54555 2352 ft 138 kts 195°
2026-04-15 15:00 51.01003 4.54183 2149 ft 132 kts 195°
2026-04-15 15:01 51.00091 4.53812 1966 ft 134 kts 195°
2026-04-15 15:01 50.99185 4.53434 1792 ft 133 kts 197°
2026-04-15 15:01 50.98296 4.53070 1588 ft 131 kts 198°
2026-04-15 15:01 50.97434 4.52720 1436 ft 129 kts 197°
2026-04-15 15:02 50.96553 4.52354 1272 ft 136 kts 196°
2026-04-15 15:02 50.95643 4.51982 1075 ft 131 kts 195°
2026-04-15 15:02 50.94757 4.51618 883 ft 134 kts 195°
2026-04-15 15:02 50.93833 4.51242 714 ft 141 kts 193°
2026-04-15 15:03 50.92886 4.50852 521 ft 139 kts 192°
2026-04-15 15:03 50.91956 4.50468 377 ft 138 kts 191°
2026-04-15 15:03 50.91053 4.50106 157 ft 123 kts 193°
2026-04-15 15:03 50.90312 4.49816 123 ft 95 kts 195°
2026-04-15 15:04 50.89794 4.49595 149 ft 59 kts 195°
2026-04-15 15:04 50.89574 4.49504 164 ft 27 kts 194°
2026-04-15 15:04 50.89416 4.49393 173 ft 21 kts 231°
2026-04-15 15:04 50.89367 4.49186 171 ft 19 kts 276°
2026-04-15 15:05 50.89448 4.49136 167 ft 11 kts
2026-04-15 15:05 50.89538 4.49169 163 ft 15 kts 13°
2026-04-15 15:05 50.89647 4.49153 157 ft 18 kts 352°
2026-04-15 15:05 50.89782 4.49200 149 ft 22 kts 14°
2026-04-15 15:06 50.90061 4.49314 135 ft 22 kts 14°
2026-04-15 15:06 50.90197 4.49370 133 ft 19 kts 14°
2026-04-15 15:06 50.90315 4.49408 128 ft 13 kts 345°
2026-04-15 15:07 50.90380 4.49338 126 ft 11 kts 324°
2026-04-15 15:07 50.90451 4.49268 127 ft 13 kts 336°
2026-04-15 15:07 50.90533 4.49213 124 ft 13 kts 337°
2026-04-15 15:07 50.90616 4.49156 122 ft 14 kts 335°
2026-04-15 15:08 50.90704 4.49077 122 ft 15 kts 301°
2026-04-15 15:08 50.90679 4.48920 121 ft 15 kts 243°
2026-04-15 15:08 50.90634 4.48769 121 ft 15 kts 245°
2026-04-15 15:08 50.90590 4.48618 121 ft 15 kts 245°
2026-04-15 15:09 50.90547 4.48466 122 ft 15 kts 246°
2026-04-15 15:09 50.90503 4.48315 126 ft 15 kts 244°
2026-04-15 15:09 50.90460 4.48163 123 ft 15 kts 245°
2026-04-15 15:09 50.90416 4.48011 125 ft 15 kts 245°
2026-04-15 15:10 50.90372 4.47860 121 ft 15 kts 245°
2026-04-15 15:10 50.90328 4.47711 125 ft 15 kts 245°
2026-04-15 15:10 50.90283 4.47560 121 ft 15 kts 245°
2026-04-15 15:10 50.90239 4.47409 127 ft 15 kts 245°
2026-04-15 15:11 50.90193 4.47259 124 ft 15 kts 244°
2026-04-15 15:11 50.90176 4.47103 128 ft 15 kts 293°
2026-04-15 15:11 50.90221 4.46951 128 ft 15 kts 296°
2026-04-15 15:11 50.90268 4.46799 133 ft 15 kts 296°
2026-04-15 15:12 50.90314 4.46651 128 ft 15 kts 296°
2026-04-15 15:12 50.90358 4.46497 136 ft 15 kts 285°
2026-04-15 15:12 50.90342 4.46335 137 ft 15 kts 245°
2026-04-15 15:12 50.90299 4.46185 139 ft 15 kts 246°
2026-04-15 15:13 50.90256 4.46032 141 ft 15 kts 245°
2026-04-15 15:13 50.90212 4.45880 143 ft 15 kts 245°
2026-04-15 15:13 50.90175 4.45749 144 ft 9 kts 252°
2026-04-15 15:13 50.90205 4.45703 144 ft 6 kts 346°
2026-04-15 15:14 50.90243 4.45679 144 ft 4 kts 334°
2026-04-15 15:14 50.90245 4.45677 144 ft 0 kts 334°